DW4219 Weather Reports


Display with metric or nautical units.
time (UTC)temp
F
wind
direction
speed
MPH
gust
MPH
rain 1hr
in
rain 24hr
in
rain mn
in
humidity
%
barometer
mb
20260905224522 81 243 15.0 31.0 0.00 0.00 0.00 22 1009.9
20260905223014 81 229 14.0 28.0 0.00 0.00 0.00 22 1010.1
20260905221517 81 211 19.0 39.0 0.00 0.00 0.00 22 1010.3
20260905220011 81 229 12.0 32.0 0.00 0.00 0.00 22 1010.3
20260905214512 81 219 14.0 27.0 0.00 0.00 0.00 22 1010.6
20260905213008 81 162 18.0 31.0 0.00 0.00 0.00 22 1010.9
20260905211507 81 217 16.0 26.0 0.00 0.00 0.00 22 1011.0
20260905210006 81 203 15.0 29.0 0.00 0.00 0.00 21 1011.0
20260905204508 80 218 16.0 29.0 0.00 0.00 0.00 21 1011.0
20260905203006 81 243 15.0 33.0 0.00 0.00 0.00 21 1010.9
20260905201506 80 217 13.0 28.0 0.00 0.00 0.00 21 1011.0
20260905200002 80 204 16.0 26.0 0.00 0.00 0.00 21 1011.1
20260905194603 80 203 17.0 28.0 0.00 0.00 0.00 21 1011.2
20260905193059 79 223 15.0 26.0 0.00 0.00 0.00 22 1011.5
20260905191557 78 145 16.0 24.0 0.00 0.00 0.00 23 1011.6
20260905190056 78 167 16.0 27.0 0.00 0.00 0.00 22 1011.8
20260905184600 77 198 14.0 28.0 0.00 0.00 0.00 23 1011.9
20260905183057 77 197 12.0 25.0 0.00 0.00 0.00 23 1011.9
20260905181604 77 169 12.0 29.0 0.00 0.00 0.00 24 1011.9
20260905180050 76 269 13.0 28.0 0.00 0.00 0.00 24 1012.2
20260905174553 76 198 17.0 33.0 0.00 0.00 0.00 24 1012.2
20260905173047 76 205 14.0 24.0 0.00 0.00 0.00 23 1012.1
20260905171546 75 184 11.0 24.0 0.00 0.00 0.00 24 1012.0
20260905170044 75 209 12.0 24.0 0.00 0.00 0.00 23 1012.0
20260905164542 74 218 14.0 28.0 0.00 0.00 0.00 25 1012.1
20260905163041 74 198 14.0 25.0 0.00 0.00 0.00 25 1011.9
20260905161539 74 231 9.0 23.0 0.00 0.00 0.00 25 1011.9
20260905160106 73 184 11.0 26.0 0.00 0.00 0.00 25 1011.9
20260905154535 73 217 5.0 18.0 0.00 0.00 0.00 24 1011.9
20260905153033 73 198 7.0 19.0 0.00 0.00 0.00 23 1011.9
20260905151534 72 154 10.0 20.0 0.00 0.00 0.00 23 1012.1
20260905150028 71 229 5.0 11.0 0.00 0.00 0.00 23 1012.0
20260905144524 69 154 1.0 5.0 0.00 0.00 0.00 25 1012.1
20260905143020 66 24 0.0 4.0 0.00 0.00 0.00 27 1011.9
20260905141515 63 322 0.0 1.0 0.00 0.00 0.00 31 1011.8
20260905140013 59 290 0.0 2.0 0.00 0.00 0.00 32 1011.6
20260905134511 57 238 0.0 2.0 0.00 0.00 0.00 34 1011.4
20260905133011 56 310 2.0 3.0 0.00 0.00 0.00 35 1011.1
20260905131508 55 198 0.0 2.0 0.00 0.00 0.00 37 1010.9
20260905130005 55 328 0.0 1.0 0.00 0.00 0.00 36 1010.7
20260905124505 55 217 0.0 1.0 0.00 0.00 0.00 36 1010.7
20260905123004 58 231 0.0 2.0 0.00 0.00 0.00 33 1010.6
20260905121503 56 199 1.0 2.0 0.00 0.00 0.00 34 1010.6
20260905120002 55 216 0.0 0.0 0.00 0.00 0.00 36 1010.5
20260905114502 54 181 0.0 0.0 0.00 0.00 0.00 37 1010.5
20260905113058 55 238 0.0 0.0 0.00 0.00 0.00 36 1010.6
20260905111610 56 143 0.0 1.0 0.00 0.00 0.00 34 1010.6
20260905110059 55 151 0.0 3.0 0.00 0.00 0.00 34 1010.6
20260905104552 57 224 1.0 3.0 0.00 0.00 0.00 34 1010.6
20260905103053 60 96 0.0 1.0 0.00 0.00 0.00 30 1010.5
20260905101549 58 138 0.0 1.0 0.00 0.00 0.00 33 1010.3
20260905100051 60 304 0.0 3.0 0.00 0.00 0.00 32 1010.2
20260905094546 58 333 0.0 1.0 0.00 0.00 0.00 32 1010.1
20260905093045 57 311 0.0 1.0 0.00 0.00 0.00 35 1010.0
20260905091614 56 144 0.0 0.0 0.00 0.00 0.00 35 1009.8
20260905090041 58 110 0.0 1.0 0.00 0.00 0.00 33 1009.8
20260905084541 61 240 0.0 1.0 0.00 0.00 0.00 31 1009.8
20260905083040 60 354 0.0 1.0 0.00 0.00 0.00 30 1009.9
20260905081538 59 131 0.0 0.0 0.00 0.00 0.00 31 1009.8
20260905080048 62 131 0.0 1.0 0.00 0.00 0.00 29 1009.8
20260905074540 60 213 0.0 0.0 0.00 0.00 0.00 31 1009.8
20260905073032 60 199 0.0 0.0 0.00 0.00 0.00 32 1009.7
20260905071530 58 128 0.0 1.0 0.00 0.00 0.00 34 1009.4
20260905070028 57 226 0.0 1.0 0.00 0.00 0.00 37 1009.3
20260905064525 58 186 0.0 0.0 0.00 0.00 0.00 32 1009.1
20260905063023 58 169 0.0 0.0 0.00 0.00 0.00 31 1009.1
20260905061521 58 169 0.0 0.0 0.00 0.00 0.00 31 1008.9
20260905060018 59 133 0.0 0.0 0.00 0.00 0.00 31 1008.7
20260905054518 59 200 0.0 0.0 0.00 0.00 0.00 31 1008.7
20260905053015 59 200 0.0 0.0 0.00 0.00 0.00 30 1008.7
20260905051514 61 200 0.0 0.0 0.00 0.00 0.00 30 1008.6
20260905050007 64 133 0.0 0.0 0.00 0.00 0.00 28 1008.6
20260905044508 66 133 0.0 1.0 0.00 0.00 0.00 24 1008.5
20260905043015 68 157 0.0 1.0 0.00 0.00 0.00 23 1008.4
20260905041507 70 179 2.0 5.0 0.00 0.00 0.00 21 1008.3
20260905040006 71 198 4.0 8.0 0.00 0.00 0.00 21 1008.2
20260905034506 72 225 4.0 14.0 0.00 0.00 0.00 20 1008.1
20260905033005 73 219 9.0 15.0 0.00 0.00 0.00 20 1008.0
20260905031507 73 230 6.0 14.0 0.00 0.00 0.00 21 1007.7
20260905030004 73 207 6.0 17.0 0.00 0.00 0.00 21 1007.4
20260905024503 73 186 2.0 11.0 0.00 0.00 0.00 23 1007.1
20260905023004 73 232 5.0 11.0 0.00 0.00 0.00 24 1007.0
20260905021503 74 219 6.0 15.0 0.00 0.00 0.00 24 1006.8
20260905014600 76 217 8.0 19.0 0.00 0.00 0.00 25 1006.5
20260905013058 77 231 8.0 18.0 0.00 0.00 0.00 25 1006.5
20260905011602 78 236 7.0 19.0 0.00 0.00 0.00 26 1006.4
20260905010105 79 236 11.0 24.0 0.00 0.00 0.00 26 1006.2
20260905004557 80 212 9.0 18.0 0.00 0.00 0.00 26 1006.2
20260905003056 80 281 12.0 23.0 0.00 0.00 0.00 27 1006.2
20260905001604 80 236 8.0 20.0 0.00 0.00 0.00 27 1006.1
20260905000111 81 250 13.0 21.0 0.00 0.00 0.00 26 1006.1
20260904234554 81 200 14.0 22.0 0.00 0.00 0.00 27 1006.1
20260904233115 80 226 11.0 24.0 0.00 0.00 0.00 29 1006.1
20260904231603 81 214 12.0 21.0 0.00 0.00 0.00 30 1006.1
20260904230051 81 157 10.0 23.0 0.00 0.00 0.00 28 1006.3
20260904224556 81 200 16.0 28.0 0.00 0.00 0.00 26 1006.4